M I D A S
Marine Information and Data Acquisition System
Tripno 505 of the Zeeleeuw from 2003-05-26 06:40:15 to 2003-05-26 16:43:07
Back to CruiseResearch ActivitiesStationsMapUnderway DataData graphs

EquipmentUnitsComments
TimeDGPSUTC
LatitudeDGPSDM.mWGS84
LongitudeDGPSDM.mWGS84
SpeedMeteo Stationm/sRelative wind speed
DirectionMeteo StationdegRelative wind direction
TemperatureMeteo Stationdeg CelciusAir temperature
PressureMeteo StationPaAtmospheric pressure
HumidityMeteo Station%Relative humidity
Missing or incorrect values are displayed as -999
Metereological data collected by the RV Zeeleeuw from 2003-05-26 06:40:15 to 2003-05-26 16:43:07
                                                                                    Next 1000 lines
Time Latitude Longitude Speed Direction Temperature Pressure Humidity
2003-05-26 06:40:25 51°13.6 2°56.1 0.6   12.2 102210 89
2003-05-26 06:40:29 51°13.6 2°56.1 0.3   12.2 102210 89
2003-05-26 06:40:35 51°13.6 2°56.1 0.3   12.2 102200 89
2003-05-26 06:40:39 51°13.6 2°56.1 0.6   12.2 102200 89
2003-05-26 06:40:45 51°13.6 2°56.1 0.5   12.2 102200 89
2003-05-26 06:40:49 51°13.6 2°56.1 0.7   12.2 102200 89
2003-05-26 06:40:55 51°13.6 2°56.1 0.7   12.2 102210 89
2003-05-26 06:40:59 51°13.6 2°56.1 0.4   12.2 102210 89
2003-05-26 06:41:05 51°13.6 2°56.1 0.8   12.3 102210 89
2003-05-26 06:41:09 51°13.6 2°56.1 1.1   12.3 102210 89
2003-05-26 06:41:15 51°13.6 2°56.1 0.9   12.3 102200 89
2003-05-26 06:41:19 51°13.6 2°56.1 1.1   12.3 102200 89
2003-05-26 06:41:23 51°13.6 2°56.1 1.2   12.3 102210 89
2003-05-26 06:41:29 51°13.6 2°56.1 1.4   12.3 102210 89
2003-05-26 06:41:35 51°13.6 2°56.1 1.6   12.3 102210 89
2003-05-26 06:41:39 51°13.6 2°56.09 3   12.3 102210 89
2003-05-26 06:41:43 51°13.6 2°56.09 2.9   12.3 102210 89
2003-05-26 06:41:49 51°13.61 2°56.08 2.7   12.3 102210 89
2003-05-26 06:41:55 51°13.61 2°56.08 3   12.3 102210 89
2003-05-26 06:41:59 51°13.61 2°56.07 2.4   12.3 102210 89
2003-05-26 06:42:05 51°13.61 2°56.07 2.1   12.3 102210 89
2003-05-26 06:42:09 51°13.61 2°56.06 4   12.3 102210 89
2003-05-26 06:42:15 51°13.62 2°56.05 3.9   12.3 102210 89
2003-05-26 06:42:19 51°13.62 2°56.05 3.7   12.3 102210 89
2003-05-26 06:42:25 51°13.62 2°56.04 3.8   12.3 102210 89
2003-05-26 06:42:29 51°13.62 2°56.03 3.6   12.3 102210 89
2003-05-26 06:42:35 51°13.62 2°56.02 3.1   12.3 102210 88
2003-05-26 06:42:39 51°13.63 2°56.01 3.7   12.3 102210 88
2003-05-26 06:42:45 51°13.63 2°56 2.7   12.2 102210 88
2003-05-26 06:42:49 51°13.63 2°56 2.8   12.2 102210 88
2003-05-26 06:42:55 51°13.63 2°55.98 2.5   12.2 102210 88
2003-05-26 06:42:59 51°13.63 2°55.98 2.5   12.2 102210 88
2003-05-26 06:43:05 51°13.64 2°55.96 1.7   12.2 102210 88
2003-05-26 06:43:09 51°13.64 2°55.96 2.3   12.2 102210 88
2003-05-26 06:43:15 51°13.64 2°55.94 2   12.2 102210 88
2003-05-26 06:43:19 51°13.64 2°55.93 3.2   12.2 102210 88
2003-05-26 06:43:25 51°13.65 2°55.92 3   12.3 102210 89
2003-05-26 06:43:29 51°13.65 2°55.91 3.9   12.3 102210 89
2003-05-26 06:43:35 51°13.65 2°55.9 3.5   12.3 102200 89
2003-05-26 06:43:39 51°13.66 2°55.89 5.2   12.3 102200 89
2003-05-26 06:43:43 51°13.66 2°55.89 5.6   12.4 102210 89
2003-05-26 06:43:49 51°13.66 2°55.87 5.1   12.4 102210 89
2003-05-26 06:43:55 51°13.66 2°55.86 5.4   12.4 102210 89
2003-05-26 06:43:59 51°13.67 2°55.86 4.5   12.4 102210 89
2003-05-26 06:44:03 51°13.67 2°55.85 4.8   12.3 102210 88
2003-05-26 06:44:09 51°13.67 2°55.84 3.4   12.3 102210 88
2003-05-26 06:44:15 51°13.67 2°55.83 4.2   12.3 102210 88
2003-05-26 06:44:19 51°13.67 2°55.82 2.5   12.3 102210 88
2003-05-26 06:44:25 51°13.67 2°55.81 3.1   12.3 102210 88
2003-05-26 06:44:29 51°13.68 2°55.81 3.5   12.3 102210 88
2003-05-26 06:44:35 51°13.68 2°55.8 2.9   12.3 102210 88
2003-05-26 06:44:39 51°13.68 2°55.79 2.1   12.3 102210 88
2003-05-26 06:44:45 51°13.68 2°55.78 2   12.3 102210 88
2003-05-26 06:44:49 51°13.68 2°55.78 1.3   12.3 102210 88
2003-05-26 06:44:55 51°13.68 2°55.77 1.5   12.3 102210 88
2003-05-26 06:44:59 51°13.68 2°55.77 1   12.3 102210 88
2003-05-26 06:45:05 51°13.68 2°55.76 1.3   12.3 102210 88
2003-05-26 06:45:09 51°13.68 2°55.76 0.8   12.3 102210 88
2003-05-26 06:45:13 51°13.68 2°55.76 0.6   12.3 102210 88
2003-05-26 06:45:19 51°13.68 2°55.76 0.9   12.3 102210 88
2003-05-26 06:45:23 51°13.68 2°55.76 0.9   12.3 102210 88
2003-05-26 06:45:27 51°13.68 2°55.76 0.9   12.3 102210 88
2003-05-26 06:45:31 51°13.68 2°55.76 1   12.3 102210 88
2003-05-26 06:45:35 51°13.68 2°55.77 0.7   12.3 102210 88
2003-05-26 06:45:39 51°13.68 2°55.77 1   12.3 102210 88
2003-05-26 06:45:45 51°13.68 2°55.77 1.3   12.3 102210 88
2003-05-26 06:45:49 51°13.68 2°55.77 1.3   12.4 102210 88
2003-05-26 06:45:55 51°13.68 2°55.78 1.9   12.4 102210 88
2003-05-26 06:45:59 51°13.69 2°55.78 2.3   12.4 102210 88
2003-05-26 06:46:03 51°13.69 2°55.78 1.8   12.4 102210 88
2003-05-26 06:46:09 51°13.69 2°55.79 2.1   12.4 102210 88
2003-05-26 06:46:15 51°13.7 2°55.79 2.2   12.4 102210 88
2003-05-26 06:46:19 51°13.7 2°55.79 2.5   12.4 102210 88
2003-05-26 06:46:23 51°13.7 2°55.79 2.1   12.4 102210 88
2003-05-26 06:46:29 51°13.7 2°55.79 2.4   12.5 102200 88
2003-05-26 06:46:35 51°13.7 2°55.79 2   12.5 102200 88
2003-05-26 06:46:39 51°13.7 2°55.79 1.9   12.5 102210 88
2003-05-26 06:46:43 51°13.7 2°55.79 2.9   12.5 102210 88
2003-05-26 06:46:49 51°13.7 2°55.79 2.4   12.5 102200 88
2003-05-26 06:46:55 51°13.7 2°55.79 2   12.5 102200 88
2003-05-26 06:46:59 51°13.7 2°55.79 1.8   12.5 102210 88
2003-05-26 06:47:05 51°13.7 2°55.79 2   12.5 102210 88
2003-05-26 06:47:11 51°13.7 2°55.79 1.6   12.5 102210 88
2003-05-26 06:47:15 51°13.7 2°55.79 1.1   12.5 102210 88
2003-05-26 06:47:21 51°13.69 2°55.79 1.1   12.6 102210 88
2003-05-26 06:47:27 51°13.69 2°55.79 1   12.6 102210 88
2003-05-26 06:47:31 51°13.69 2°55.79 0.9   12.6 102210 88
2003-05-26 06:47:37 51°13.69 2°55.79 1.6   12.6 102210 88
2003-05-26 06:47:43 51°13.69 2°55.79 1.4   12.6 102210 87
2003-05-26 06:47:47 51°13.69 2°55.79 1.3   12.6 102210 87
2003-05-26 06:47:53 51°13.69 2°55.79 1.3   12.6 102200 87
2003-05-26 06:47:59 51°13.69 2°55.79 1.6   12.6 102200 87
2003-05-26 06:48:03 51°13.69 2°55.78 2.3   12.6 102200 87
2003-05-26 06:48:09 51°13.7 2°55.78 2.1   12.6 102200 87
2003-05-26 06:48:15 51°13.7 2°55.78 2.1   12.6 102210 88
2003-05-26 06:48:19 51°13.7 2°55.78 2.2   12.6 102210 88
2003-05-26 06:48:23 51°13.7 2°55.77 1.8   12.7 102210 88
2003-05-26 06:48:29 51°13.71 2°55.77 2.6   12.7 102210 88
2003-05-26 06:48:33 51°13.71 2°55.77 2.4   12.7 102210 88
2003-05-26 06:48:37 51°13.71 2°55.76 2.8   12.7 102210 88
2003-05-26 06:48:43 51°13.72 2°55.76 2.6   12.7 102210 88
2003-05-26 06:48:47 51°13.72 2°55.75 2.5   12.7 102210 88
2003-05-26 06:48:51 51°13.72 2°55.75 2.7   12.7 102210 87
2003-05-26 06:48:55 51°13.73 2°55.75 2.8   12.7 102210 87
2003-05-26 06:48:59 51°13.73 2°55.74 3.1   12.8 102200 87
2003-05-26 06:49:03 51°13.73 2°55.74 4   12.8 102200 87
2003-05-26 06:49:09 51°13.74 2°55.73 3.8   12.8 102210 87
2003-05-26 06:49:15 51°13.75 2°55.72 4.9   12.8 102210 87
2003-05-26 06:49:19 51°13.75 2°55.72 4.9   12.8 102200 87
2003-05-26 06:49:23 51°13.76 2°55.71 4.2   12.8 102200 87
2003-05-26 06:49:29 51°13.77 2°55.7 4.2   12.8 102200 87
2003-05-26 06:49:35 51°13.77 2°55.69 4.1   12.8 102200 87
2003-05-26 06:49:39 51°13.78 2°55.69 3.5   12.8 102200 87
2003-05-26 06:49:43 51°13.79 2°55.68 4   12.8 102200 87
2003-05-26 06:49:49 51°13.79 2°55.67 3.6   12.9 102200 87
2003-05-26 06:49:55 51°13.8 2°55.66 3.6   12.9 102200 87
2003-05-26 06:49:59 51°13.81 2°55.66 3.3   12.9 102200 87
2003-05-26 06:50:03 51°13.82 2°55.65 2.6   12.9 102200 87
2003-05-26 06:50:09 51°13.83 2°55.64 2.9   12.9 102200 87
2003-05-26 06:50:15 51°13.84 2°55.63 4   12.9 102200 87
2003-05-26 06:50:19 51°13.84 2°55.63 4.6   12.9 102200 87
2003-05-26 06:50:23 51°13.85 2°55.62 4   12.9 102200 87
2003-05-26 06:50:29 51°13.86 2°55.61 3.5   12.9 102200 87
2003-05-26 06:50:35 51°13.87 2°55.6 4.4   12.9 102200 87
2003-05-26 06:50:39 51°13.88 2°55.6 4.4   12.9 102200 86
2003-05-26 06:50:43 51°13.89 2°55.59 3.8   12.9 102200 86
2003-05-26 06:50:49 51°13.9 2°55.59 4   12.9 102200 86
2003-05-26 06:50:55 51°13.91 2°55.58 3.8   12.9 102200 86
2003-05-26 06:50:59 51°13.92 2°55.57 4.7   13 102200 86
2003-05-26 06:51:03 51°13.92 2°55.57 4.9   13 102200 86
2003-05-26 06:51:09 51°13.94 2°55.56 4.5   12.9 102200 86
2003-05-26 06:51:15 51°13.95 2°55.55 4.1   12.9 102200 86
2003-05-26 06:51:19 51°13.96 2°55.54 4.8   13 102200 86
2003-05-26 06:51:23 51°13.96 2°55.54 5.3   13 102200 86
2003-05-26 06:51:29 51°13.98 2°55.53 6   13 102200 86
2003-05-26 06:51:35 51°13.99 2°55.52 4.8   13 102200 86
2003-05-26 06:51:39 51°13.99 2°55.51 4.7   13 102200 86
2003-05-26 06:51:43 51°14 2°55.51 5.6   13 102200 86
2003-05-26 06:51:49 51°14.01 2°55.5 6.2   13 102200 86
2003-05-26 06:51:55 51°14.03 2°55.49 4.8   13 102200 86
2003-05-26 06:51:59 51°14.03 2°55.48 4.7   13 102200 86
2003-05-26 06:52:03 51°14.04 2°55.48 5.9   13 102200 86
2003-05-26 06:52:09 51°14.05 2°55.47 5   13 102200 86
2003-05-26 06:52:15 51°14.07 2°55.46 5   13 102200 86
2003-05-26 06:52:19 51°14.07 2°55.45 4.8   13 102200 86
2003-05-26 06:52:23 51°14.08 2°55.45 5.4   13 102200 86
2003-05-26 06:52:29 51°14.09 2°55.44 4.9   13 102200 86
2003-05-26 06:52:35 51°14.11 2°55.43 5.9   13 102200 86
2003-05-26 06:52:39 51°14.11 2°55.42 6.7   13 102200 86
2003-05-26 06:52:43 51°14.12 2°55.42 6.6   13 102200 86
2003-05-26 06:52:49 51°14.13 2°55.41 5.7   13 102200 85
2003-05-26 06:52:55 51°14.15 2°55.4 5.2   13 102200 85
2003-05-26 06:52:59 51°14.15 2°55.39 5.1   13 102200 85
2003-05-26 06:53:03 51°14.16 2°55.38 5.9   13 102200 85
2003-05-26 06:53:09 51°14.17 2°55.37 6.1   13 102200 85
2003-05-26 06:53:15 51°14.18 2°55.36 5.1   13 102200 85
2003-05-26 06:53:19 51°14.19 2°55.35 3.9   13 102200 85
2003-05-26 06:53:23 51°14.2 2°55.35 6.3   13 102200 85
2003-05-26 06:53:29 51°14.21 2°55.33 6.2   13 102200 85
2003-05-26 06:53:35 51°14.22 2°55.32 6   13 102200 85
2003-05-26 06:53:39 51°14.23 2°55.31 6   13 102200 85
2003-05-26 06:53:43 51°14.23 2°55.3 6   13 102200 85
2003-05-26 06:53:49 51°14.24 2°55.29 5.9   13 102200 85
2003-05-26 06:53:55 51°14.25 2°55.27 5.3   13 102200 85
2003-05-26 06:53:59 51°14.26 2°55.26 5.9   13 102200 85
2003-05-26 06:54:03 51°14.26 2°55.25 5.8   13 102200 85
2003-05-26 06:54:09 51°14.27 2°55.24 6.4   13 102200 85
2003-05-26 06:54:15 51°14.28 2°55.22 6.2   13 102200 85
2003-05-26 06:54:19 51°14.29 2°55.21 6.3   13 102200 85
2003-05-26 06:54:23 51°14.29 2°55.2 6.7   13 102200 85
2003-05-26 06:54:29 51°14.3 2°55.19 6.4   12.9 102200 85
2003-05-26 06:54:35 51°14.31 2°55.17 6   12.9 102200 85
2003-05-26 06:54:39 51°14.32 2°55.16 6.2   12.9 102200 85
2003-05-26 06:54:43 51°14.32 2°55.15 4.5   12.9 102200 85
2003-05-26 06:54:49 51°14.33 2°55.13 6.3   12.9 102200 85
2003-05-26 06:54:55 51°14.34 2°55.11 5.5   12.9 102200 85
2003-05-26 06:54:59 51°14.35 2°55.1 5.8   12.9 102200 85
2003-05-26 06:55:03 51°14.35 2°55.09 6   12.9 102200 85
2003-05-26 06:55:09 51°14.36 2°55.08 5.8   12.9 102200 85
2003-05-26 06:55:15 51°14.37 2°55.06 5.2   12.9 102200 85
2003-05-26 06:55:19 51°14.38 2°55.06 5.1   12.8 102200 84
2003-05-26 06:55:23 51°14.39 2°55.05 5   12.8 102200 84
2003-05-26 06:55:29 51°14.4 2°55.04 5.1   12.8 102200 84
2003-05-26 06:55:35 51°14.41 2°55.03 4.8   12.8 102200 84
2003-05-26 06:55:39 51°14.42 2°55.02 4.8   12.8 102200 84
2003-05-26 06:55:43 51°14.43 2°55.02 4.5   12.8 102200 84
2003-05-26 06:55:49 51°14.44 2°55.01 4.5   12.8 102200 84
2003-05-26 06:55:55 51°14.45 2°55 4.7   12.8 102200 84
2003-05-26 06:55:59 51°14.46 2°55 5.1   12.8 102200 84
2003-05-26 06:56:03 51°14.47 2°54.99 4.9   12.8 102200 84
2003-05-26 06:56:09 51°14.49 2°54.99 4.5   12.7 102200 84
2003-05-26 06:56:15 51°14.5 2°54.98 5   12.7 102200 84
2003-05-26 06:56:19 51°14.51 2°54.98 4.8   12.7 102200 84
2003-05-26 06:56:23 51°14.52 2°54.97 4.5   12.7 102200 84
2003-05-26 06:56:29 51°14.54 2°54.97 4.7   12.7 102200 84
2003-05-26 06:56:35 51°14.56 2°54.96 4.4   12.7 102200 84
2003-05-26 06:56:39 51°14.57 2°54.96 4.3   12.7 102200 84
2003-05-26 06:56:43 51°14.58 2°54.96 4.3   12.7 102200 84
2003-05-26 06:56:49 51°14.59 2°54.95 4.3   12.7 102200 84
2003-05-26 06:56:55 51°14.61 2°54.95 4.4   12.7 102200 84
2003-05-26 06:56:59 51°14.62 2°54.95 4.2   12.7 102210 84
2003-05-26 06:57:03 51°14.64 2°54.94 4.3   12.7 102210 84
2003-05-26 06:57:09 51°14.65 2°54.94 4.3   12.7 102210 84
2003-05-26 06:57:15 51°14.67 2°54.94 4.6   12.7 102210 84
2003-05-26 06:57:19 51°14.68 2°54.93 4.3   12.7 102210 84
2003-05-26 06:57:23 51°14.69 2°54.93 4.7   12.7 102210 84
2003-05-26 06:57:29 51°14.71 2°54.93 4.3   12.7 102210 84
2003-05-26 06:57:35 51°14.73 2°54.92 3.9   12.7 102210 84
2003-05-26 06:57:39 51°14.74 2°54.92 4.1   12.6 102210 84
2003-05-26 06:57:43 51°14.75 2°54.92 4.3   12.6 102210 84
2003-05-26 06:57:49 51°14.77 2°54.92 4.5   12.6 102210 85
2003-05-26 06:57:55 51°14.79 2°54.92 4.3   12.6 102210 85
2003-05-26 06:57:59 51°14.8 2°54.91 4.6   12.6 102210 85
2003-05-26 06:58:03 51°14.81 2°54.91 4.2   12.6 102210 85
2003-05-26 06:58:09 51°14.83 2°54.91 4.3   12.6 102200 85
2003-05-26 06:58:15 51°14.84 2°54.91 4.2   12.6 102200 85
2003-05-26 06:58:19 51°14.86 2°54.9 4.4   12.6 102210 85
2003-05-26 06:58:23 51°14.87 2°54.9 4.3   12.6 102210 85
2003-05-26 06:58:29 51°14.88 2°54.9 4.3   12.6 102200 85
2003-05-26 06:58:35 51°14.9 2°54.89 4.2   12.6 102200 85
2003-05-26 06:58:39 51°14.91 2°54.89 4.4   12.6 102200 85
2003-05-26 06:58:43 51°14.92 2°54.89 4.3   12.6 102200 85
2003-05-26 06:58:49 51°14.94 2°54.89 4.1   12.7 102210 85
2003-05-26 06:58:55 51°14.96 2°54.88 4.1   12.7 102210 85
2003-05-26 06:58:59 51°14.97 2°54.88 4   12.6 102210 85
2003-05-26 06:59:03 51°14.98 2°54.88 4.4   12.6 102210 85
2003-05-26 06:59:09 51°15 2°54.88 4.3   12.6 102210 85
2003-05-26 06:59:15 51°15.02 2°54.88 4   12.6 102210 85
2003-05-26 06:59:19 51°15.03 2°54.88 3.8   12.7 102210 85
2003-05-26 06:59:23 51°15.04 2°54.88 3.9   12.7 102210 85
2003-05-26 06:59:29 51°15.06 2°54.89 4   12.6 102210 85
2003-05-26 06:59:35 51°15.08 2°54.89 4.2   12.6 102210 85
2003-05-26 06:59:39 51°15.09 2°54.89 4   12.6 102210 85
2003-05-26 06:59:43 51°15.1 2°54.89 4.1   12.6 102210 85
2003-05-26 06:59:49 51°15.12 2°54.89 4.2   12.6 102210 85
2003-05-26 06:59:55 51°15.14 2°54.89 4.3   12.6 102210 85
2003-05-26 06:59:59 51°15.15 2°54.89 4.4   12.6 102210 85
2003-05-26 07:00:03 51°15.16 2°54.89 4.3   12.6 102210 85
2003-05-26 07:00:09 51°15.18 2°54.89 4.3   12.6 102200 85
2003-05-26 07:00:15 51°15.2 2°54.89 4.5   12.6 102200 85
2003-05-26 07:00:19 51°15.21 2°54.89 4.4   12.6 102210 85
2003-05-26 07:00:23 51°15.23 2°54.89 4.6   12.6 102210 85
2003-05-26 07:00:29 51°15.25 2°54.88 4.8   12.6 102210 85
2003-05-26 07:00:35 51°15.26 2°54.88 4.6   12.6 102210 85
2003-05-26 07:00:39 51°15.28 2°54.88 4.9   12.6 102200 85
2003-05-26 07:00:43 51°15.29 2°54.88 4.4   12.6 102200 85
2003-05-26 07:00:49 51°15.31 2°54.87 4.7   12.6 102210 85
2003-05-26 07:00:55 51°15.33 2°54.87 4.5   12.6 102210 85
2003-05-26 07:00:59 51°15.34 2°54.87 4.6   12.6 102200 85
2003-05-26 07:01:03 51°15.35 2°54.87 4.3   12.6 102200 85
2003-05-26 07:01:09 51°15.37 2°54.87 4.3   12.6 102200 85
2003-05-26 07:01:15 51°15.39 2°54.87 4.1   12.6 102200 85
2003-05-26 07:01:19 51°15.4 2°54.88 4.1   12.6 102210 85
2003-05-26 07:01:23 51°15.41 2°54.88 4.1   12.6 102210 85
2003-05-26 07:01:29 51°15.43 2°54.88 4.3   12.6 102210 85
2003-05-26 07:01:35 51°15.45 2°54.88 4.6   12.6 102210 85
2003-05-26 07:01:39 51°15.47 2°54.88 4.4   12.6 102210 85
2003-05-26 07:01:43 51°15.48 2°54.88 4.7   12.6 102210 85
2003-05-26 07:01:49 51°15.5 2°54.87 4.6   12.6 102200 85
2003-05-26 07:01:55 51°15.52 2°54.87 4.7   12.6 102200 85
2003-05-26 07:01:59 51°15.53 2°54.87 4.6   12.6 102210 85
2003-05-26 07:02:03 51°15.54 2°54.87 4.5   12.6 102210 85
2003-05-26 07:02:09 51°15.56 2°54.87 4.2   12.6 102200 85
2003-05-26 07:02:15 51°15.58 2°54.87 4.3   12.6 102200 85
2003-05-26 07:02:19 51°15.59 2°54.87 4.4   12.6 102200 85
2003-05-26 07:02:23 51°15.6 2°54.87 4.2   12.6 102200 85
2003-05-26 07:02:29 51°15.62 2°54.87 4.3   12.6 102200 85
2003-05-26 07:02:35 51°15.64 2°54.87 3.9   12.6 102200 85
2003-05-26 07:02:39 51°15.66 2°54.87 4.1   12.6 102210 85
2003-05-26 07:02:43 51°15.67 2°54.87 4   12.6 102210 85
2003-05-26 07:02:49 51°15.69 2°54.86 4.1   12.5 102200 85
2003-05-26 07:02:55 51°15.71 2°54.86 4.2   12.5 102200 85
2003-05-26 07:02:59 51°15.72 2°54.86 4.1   12.5 102200 85
2003-05-26 07:03:03 51°15.73 2°54.86 4.3   12.5 102200 85
2003-05-26 07:03:09 51°15.75 2°54.86 4.3   12.6 102210 85
2003-05-26 07:03:15 51°15.77 2°54.86 3.9   12.6 102210 85
2003-05-26 07:03:19 51°15.78 2°54.86 3.8   12.5 102200 85
2003-05-26 07:03:23 51°15.79 2°54.86 4.1   12.5 102200 85
2003-05-26 07:03:29 51°15.81 2°54.86 4.2   12.6 102210 85
2003-05-26 07:03:35 51°15.83 2°54.86 4.1   12.6 102210 85
2003-05-26 07:03:39 51°15.84 2°54.86 4.2   12.6 102200 85
2003-05-26 07:03:43 51°15.86 2°54.85 4.5   12.6 102200 85
2003-05-26 07:03:49 51°15.88 2°54.85 4.8   12.6 102210 85
2003-05-26 07:03:55 51°15.89 2°54.84 4.3   12.6 102210 85
2003-05-26 07:03:59 51°15.91 2°54.84 4.6   12.5 102210 85
2003-05-26 07:04:03 51°15.92 2°54.84 4.5   12.5 102210 85
2003-05-26 07:04:09 51°15.94 2°54.83 4.4   12.5 102210 85
2003-05-26 07:04:15 51°15.96 2°54.83 4.5   12.5 102210 85
2003-05-26 07:04:19 51°15.97 2°54.82 4.4   12.6 102200 85
2003-05-26 07:04:23 51°15.98 2°54.82 4.1   12.6 102200 85
2003-05-26 07:04:29 51°16 2°54.82 4.5   12.5 102210 85
2003-05-26 07:04:35 51°16.02 2°54.81 4.5   12.5 102210 85
2003-05-26 07:04:39 51°16.03 2°54.81 4.7   12.5 102210 85
2003-05-26 07:04:43 51°16.04 2°54.8 4.9   12.5 102210 85
2003-05-26 07:04:49 51°16.06 2°54.79 5.4   12.6 102210 85
2003-05-26 07:04:55 51°16.07 2°54.78 5.2   12.6 102210 85
2003-05-26 07:04:59 51°16.09 2°54.77 5.5   12.6 102200 85
2003-05-26 07:05:03 51°16.1 2°54.76 5.2   12.6 102200 85
2003-05-26 07:05:09 51°16.11 2°54.75 5.1   12.6 102200 85
2003-05-26 07:05:15 51°16.13 2°54.74 5.4   12.6 102200 85
2003-05-26 07:05:19 51°16.13 2°54.73 5   12.6 102210 85
2003-05-26 07:05:23 51°16.14 2°54.72 5.8   12.6 102210 85
2003-05-26 07:05:29 51°16.15 2°54.71 5.3   12.6 102200 85
2003-05-26 07:05:35 51°16.16 2°54.69 5.2   12.6 102200 85
2003-05-26 07:05:39 51°16.16 2°54.68 5   12.6 102200 85
2003-05-26 07:05:43 51°16.16 2°54.68 4.9   12.6 102200 85
2003-05-26 07:05:49 51°16.17 2°54.66 5.2   12.6 102210 85
2003-05-26 07:05:55 51°16.17 2°54.65 5.1   12.6 102210 85
2003-05-26 07:05:59 51°16.17 2°54.64 5.1   12.6 102200 85
2003-05-26 07:06:03 51°16.17 2°54.63 5   12.6 102200 85
2003-05-26 07:06:09 51°16.18 2°54.62 5.1   12.6 102210 85
2003-05-26 07:06:15 51°16.18 2°54.6 5.3   12.6 102210 85
2003-05-26 07:06:19 51°16.18 2°54.6 5.3   12.6 102200 85
2003-05-26 07:06:23 51°16.18 2°54.59 5.1   12.6 102200 85
2003-05-26 07:06:29 51°16.18 2°54.58 4.8   12.6 102200 86
2003-05-26 07:06:35 51°16.18 2°54.57 4.8   12.6 102200 86
2003-05-26 07:06:39 51°16.18 2°54.56 4.8   12.6 102200 86
2003-05-26 07:06:43 51°16.19 2°54.55 4.9   12.6 102200 86
2003-05-26 07:06:49 51°16.19 2°54.54 4.7   12.6 102200 86
2003-05-26 07:06:55 51°16.19 2°54.53 4.8   12.6 102200 86
2003-05-26 07:06:59 51°16.19 2°54.52 4.6   12.6 102200 86
2003-05-26 07:07:03 51°16.19 2°54.52 4.3   12.6 102200 86
2003-05-26 07:07:09 51°16.19 2°54.51 4.3   12.6 102200 86
2003-05-26 07:07:15 51°16.2 2°54.5 4.1   12.6 102200 86
2003-05-26 07:07:19 51°16.2 2°54.5 4.1   12.6 102200 86
2003-05-26 07:07:23 51°16.2 2°54.49 3.9   12.6 102200 86
2003-05-26 07:07:29 51°16.2 2°54.48 4   12.6 102200 86
2003-05-26 07:07:35 51°16.21 2°54.48 3.9   12.6 102200 86
2003-05-26 07:07:39 51°16.21 2°54.47 3.9   12.6 102200 86
2003-05-26 07:07:43 51°16.21 2°54.47 4.3   12.6 102200 86
2003-05-26 07:07:49 51°16.21 2°54.46 4.1   12.6 102200 86
2003-05-26 07:07:55 51°16.22 2°54.45 4.3   12.6 102200 86
2003-05-26 07:07:59 51°16.22 2°54.44 4.4   12.7 102210 86
2003-05-26 07:08:03 51°16.22 2°54.44 4.2   12.7 102210 86
2003-05-26 07:08:09 51°16.23 2°54.43 4.4   12.6 102200 86
2003-05-26 07:08:15 51°16.23 2°54.41 4.5   12.6 102200 86
2003-05-26 07:08:19 51°16.24 2°54.41 4.8   12.7 102210 86
2003-05-26 07:08:23 51°16.24 2°54.4 4.4   12.7 102210 86
2003-05-26 07:08:29 51°16.24 2°54.39 4.8   12.7 102210 86
2003-05-26 07:08:35 51°16.25 2°54.37 4.8   12.7 102210 86
2003-05-26 07:08:39 51°16.25 2°54.37 4.7   12.7 102210 86
2003-05-26 07:08:43 51°16.25 2°54.36 4.9   12.7 102210 86
2003-05-26 07:08:49 51°16.26 2°54.34 4.8   12.7 102200 86
2003-05-26 07:08:55 51°16.26 2°54.33 4.6   12.7 102200 86
2003-05-26 07:08:59 51°16.26 2°54.32 4.6   12.7 102200 86
2003-05-26 07:09:03 51°16.27 2°54.32 4.2   12.7 102200 86
2003-05-26 07:09:09 51°16.27 2°54.31 4.1   12.7 102200 86
2003-05-26 07:09:15 51°16.27 2°54.3 3.8   12.7 102200 86
2003-05-26 07:09:19 51°16.27 2°54.29 3.4   12.7 102200 86
2003-05-26 07:09:23 51°16.27 2°54.29 3.4   12.7 102200 86
2003-05-26 07:09:29 51°16.28 2°54.28 3.3   12.7 102200 86
2003-05-26 07:09:35 51°16.28 2°54.28 2.9   12.7 102200 86
2003-05-26 07:09:39 51°16.28 2°54.28 3.2   12.7 102210 86
2003-05-26 07:09:43 51°16.28 2°54.28 2.7   12.7 102210 86
2003-05-26 07:09:49 51°16.28 2°54.28 3   12.7 102210 86
2003-05-26 07:09:55 51°16.28 2°54.28 2.9   12.7 102210 86
2003-05-26 07:09:59 51°16.28 2°54.28 2.8   12.7 102210 86
2003-05-26 07:10:03 51°16.28 2°54.28 3   12.7 102210 86
2003-05-26 07:10:09 51°16.28 2°54.28 3   12.7 102210 86
2003-05-26 07:10:15 51°16.28 2°54.28 2.8   12.7 102210 86
2003-05-26 07:10:19 51°16.29 2°54.28 2.8   12.7 102210 86
2003-05-26 07:10:23 51°16.29 2°54.28 3.3   12.7 102210 86
2003-05-26 07:10:29 51°16.29 2°54.28 3.1   12.7 102210 86
2003-05-26 07:10:35 51°16.29 2°54.28 3.3   12.7 102210 86
2003-05-26 07:10:39 51°16.29 2°54.27 3.1   12.7 102210 86
2003-05-26 07:10:43 51°16.29 2°54.27 3   12.7 102210 86
2003-05-26 07:10:49 51°16.29 2°54.27 2.8   12.7 102210 86
2003-05-26 07:10:55 51°16.29 2°54.27 2.9   12.7 102210 86
2003-05-26 07:10:59 51°16.29 2°54.27 3.1   12.8 102210 86
2003-05-26 07:11:03 51°16.29 2°54.27 3.1   12.8 102210 86
2003-05-26 07:11:09 51°16.29 2°54.27 3   12.8 102210 86
2003-05-26 07:11:15 51°16.29 2°54.27 2.7   12.8 102210 86
2003-05-26 07:11:19 51°16.29 2°54.27 3   12.8 102210 86
2003-05-26 07:11:23 51°16.29 2°54.27 3   12.8 102210 86
2003-05-26 07:11:29 51°16.29 2°54.27 3.1   12.8 102210 86
2003-05-26 07:11:35 51°16.29 2°54.27 2.8   12.8 102210 86
2003-05-26 07:11:39 51°16.29 2°54.27 3   12.8 102210 86
2003-05-26 07:11:43 51°16.29 2°54.27 2.7   12.8 102210 86
2003-05-26 07:11:49 51°16.3 2°54.27 2.6   12.8 102210 86
2003-05-26 07:11:55 51°16.3 2°54.27 2.9   12.8 102210 86
2003-05-26 07:11:59 51°16.3 2°54.27 2.9   12.9 102210 86
2003-05-26 07:12:03 51°16.3 2°54.27 3.1   12.9 102210 86
2003-05-26 07:12:09 51°16.3 2°54.27 2.8   12.8 102210 86
2003-05-26 07:12:15 51°16.3 2°54.27 3.1   12.8 102210 86
2003-05-26 07:12:19 51°16.3 2°54.27 2.8   12.9 102210 86
2003-05-26 07:12:23 51°16.3 2°54.27 3.1   12.9 102210 86
2003-05-26 07:12:29 51°16.3 2°54.27 3.2   12.9 102210 86
2003-05-26 07:12:35 51°16.3 2°54.27 2.7   12.9 102210 86
2003-05-26 07:12:39 51°16.3 2°54.27 2.7   12.9 102210 86
2003-05-26 07:12:43 51°16.3 2°54.27 2.9   12.9 102210 86
2003-05-26 07:12:49 51°16.3 2°54.27 2.8   12.9 102210 86
2003-05-26 07:12:55 51°16.3 2°54.27 3   12.9 102210 86
2003-05-26 07:12:59 51°16.3 2°54.27 3.1   12.9 102220 86
2003-05-26 07:13:03 51°16.3 2°54.27 3   12.9 102220 86
2003-05-26 07:13:09 51°16.3 2°54.27 2.9   12.9 102210 86
2003-05-26 07:13:15 51°16.3 2°54.27 3.1   12.9 102210 86
2003-05-26 07:13:19 51°16.3 2°54.27 3   13 102210 86
2003-05-26 07:13:23 51°16.3 2°54.27 3   13 102210 86
2003-05-26 07:13:29 51°16.3 2°54.27 3   13 102220 86
2003-05-26 07:13:35 51°16.31 2°54.27 3.2   13 102220 86
2003-05-26 07:13:39 51°16.31 2°54.27 3   13 102220 86
2003-05-26 07:13:43 51°16.31 2°54.27 3.4   13 102220 86
2003-05-26 07:13:49 51°16.31 2°54.27 3.3   13 102210 86
2003-05-26 07:13:55 51°16.31 2°54.27 3   13 102210 86
2003-05-26 07:13:59 51°16.31 2°54.27 3   13 102210 86
2003-05-26 07:14:03 51°16.31 2°54.27 3   13 102210 86
2003-05-26 07:14:09 51°16.31 2°54.27 2.9   13 102220 86
2003-05-26 07:14:15 51°16.31 2°54.27 2.9   13 102220 86
2003-05-26 07:14:19 51°16.31 2°54.27 3   13 102220 86
2003-05-26 07:14:23 51°16.31 2°54.27 2.9   13 102220 86
2003-05-26 07:14:29 51°16.31 2°54.27 2.9   13 102210 86
2003-05-26 07:14:35 51°16.31 2°54.27 2.8   13 102210 86
2003-05-26 07:14:39 51°16.31 2°54.27 3   13 102220 86
2003-05-26 07:14:43 51°16.31 2°54.27 3.1   13 102220 86
2003-05-26 07:14:49 51°16.31 2°54.27 2.9   13 102210 86
2003-05-26 07:14:55 51°16.31 2°54.27 2.9   13 102210 86
2003-05-26 07:14:59 51°16.31 2°54.27 3.1   13 102210 86
2003-05-26 07:15:03 51°16.31 2°54.27 2.9   13 102210 86
2003-05-26 07:15:09 51°16.32 2°54.27 2.9   13 102220 86
2003-05-26 07:15:15 51°16.32 2°54.27 2.8   13 102220 86
2003-05-26 07:15:19 51°16.32 2°54.27 2.8   13 102210 86
2003-05-26 07:15:23 51°16.32 2°54.27 3   13 102210 86
2003-05-26 07:15:29 51°16.32 2°54.27 2.9   13.1 102220 86
2003-05-26 07:15:35 51°16.32 2°54.27 2.8   13.1 102220 86
2003-05-26 07:15:39 51°16.32 2°54.27 2.9   13.1 102220 86
2003-05-26 07:15:43 51°16.32 2°54.28 2.9   13.1 102220 86
2003-05-26 07:15:49 51°16.32 2°54.28 3.1   13.1 102220 86
2003-05-26 07:15:55 51°16.32 2°54.28 2.8   13.1 102220 86
2003-05-26 07:15:59 51°16.32 2°54.28 2.6   13.1 102220 86
2003-05-26 07:16:03 51°16.32 2°54.28 1.9   13.1 102220 86
2003-05-26 07:16:09 51°16.32 2°54.28 2.5   13.1 102210 86
2003-05-26 07:16:15 51°16.32 2°54.28 2.8   13.1 102210 86
2003-05-26 07:16:19 51°16.32 2°54.28 1.6   13.1 102220 86
2003-05-26 07:16:23 51°16.32 2°54.28 2.8   13.1 102220 86
2003-05-26 07:16:29 51°16.32 2°54.28 3.1   13.1 102220 86
2003-05-26 07:16:35 51°16.33 2°54.28 3   13.1 102220 86
2003-05-26 07:16:39 51°16.33 2°54.28 2.9   13.1 102210 86
2003-05-26 07:16:43 51°16.33 2°54.28 3   13.1 102210 86
2003-05-26 07:16:49 51°16.33 2°54.28 2.8   13.1 102210 86
2003-05-26 07:16:55 51°16.33 2°54.28 2.9   13.1 102210 86
2003-05-26 07:16:59 51°16.33 2°54.28 2.6   13.1 102220 86
2003-05-26 07:17:03 51°16.33 2°54.29 2.8   13.1 102220 86
2003-05-26 07:17:09 51°16.33 2°54.29 2.9   13.2 102220 86
2003-05-26 07:17:15 51°16.33 2°54.29 2.6   13.2 102220 86
2003-05-26 07:17:19 51°16.33 2°54.29 2.6   13.2 102220 86
2003-05-26 07:17:23 51°16.33 2°54.29 2.8   13.2 102220 86
2003-05-26 07:17:29 51°16.33 2°54.29 3.1   13.2 102220 86
2003-05-26 07:17:35 51°16.33 2°54.29 2.7   13.2 102220 86
2003-05-26 07:17:39 51°16.33 2°54.29 2.6   13.2 102220 86
2003-05-26 07:17:43 51°16.33 2°54.29 2.8   13.2 102220 86
2003-05-26 07:17:49 51°16.33 2°54.29 2.6   13.2 102220 86
2003-05-26 07:17:55 51°16.33 2°54.29 2.8   13.2 102220 86
2003-05-26 07:17:59 51°16.34 2°54.3 2.9   13.2 102220 86
2003-05-26 07:18:03 51°16.34 2°54.3 3.2   13.2 102220 86
2003-05-26 07:18:09 51°16.34 2°54.3 3.1   13.2 102220 86
2003-05-26 07:18:15 51°16.34 2°54.3 3   13.2 102220 86
2003-05-26 07:18:19 51°16.34 2°54.3 3   13.2 102220 86
2003-05-26 07:18:23 51°16.34 2°54.3 2.9   13.2 102220 86
2003-05-26 07:18:29 51°16.34 2°54.3 3   13.2 102220 86
2003-05-26 07:18:35 51°16.34 2°54.3 3   13.2 102220 86
2003-05-26 07:18:39 51°16.34 2°54.3 3.1   13.2 102220 86
2003-05-26 07:18:43 51°16.34 2°54.3 2.8   13.2 102220 86
2003-05-26 07:18:49 51°16.34 2°54.3 2.9   13.3 102220 86
2003-05-26 07:18:55 51°16.34 2°54.31 2.8   13.3 102220 86
2003-05-26 07:18:59 51°16.34 2°54.31 2.8   13.2 102220 86
2003-05-26 07:19:03 51°16.34 2°54.31 2.8   13.2 102220 86
2003-05-26 07:19:09 51°16.34 2°54.31 2.6   13.3 102220 86
2003-05-26 07:19:15 51°16.34 2°54.31 2.7   13.3 102220 86
2003-05-26 07:19:19 51°16.34 2°54.31 2.8   13.3 102220 86
2003-05-26 07:19:23 51°16.34 2°54.31 2.7   13.3 102220 86
2003-05-26 07:19:29 51°16.34 2°54.31 2.7   13.3 102220 86
2003-05-26 07:19:35 51°16.34 2°54.31 2.9   13.3 102220 86
2003-05-26 07:19:39 51°16.34 2°54.31 2.9   13.3 102220 86
2003-05-26 07:19:43 51°16.34 2°54.31 2.9   13.3 102220 86
2003-05-26 07:19:49 51°16.34 2°54.31 3.1   13.3 102220 86
2003-05-26 07:19:55 51°16.34 2°54.31 3.6   13.3 102220 86
2003-05-26 07:19:59 51°16.34 2°54.31 3.6   13.3 102220 86
2003-05-26 07:20:03 51°16.34 2°54.31 3.8   13.3 102220 86
2003-05-26 07:20:09 51°16.34 2°54.31 3.9   13.3 102220 86
2003-05-26 07:20:15 51°16.34 2°54.3 4.2   13.3 102220 86
2003-05-26 07:20:19 51°16.34 2°54.3 3.8   13.2 102220 86
2003-05-26 07:20:23 51°16.34 2°54.3 4.1   13.2 102220 86
2003-05-26 07:20:29 51°16.33 2°54.29 4.2   13.2 102220 86
2003-05-26 07:20:35 51°16.33 2°54.28 4   13.2 102220 86
2003-05-26 07:20:39 51°16.33 2°54.28 4.1   13.2 102220 85
2003-05-26 07:20:45 51°16.33 2°54.27 4.5   13.2 102220 85
2003-05-26 07:20:49 51°16.33 2°54.27 4.4   13.2 102220 86
2003-05-26 07:20:55 51°16.34 2°54.26 4.6   13.2 102220 86
2003-05-26 07:20:59 51°16.34 2°54.25 4.8   13.2 102220 86
2003-05-26 07:21:03 51°16.34 2°54.24 5   13.2 102220 86
2003-05-26 07:21:09 51°16.34 2°54.23 5.3   13.2 102220 86
2003-05-26 07:21:15 51°16.35 2°54.21 5.6   13.2 102220 86
2003-05-26 07:21:19 51°16.35 2°54.2 5.6   13.2 102220 86
2003-05-26 07:21:23 51°16.36 2°54.19 5.7   13.2 102220 86
2003-05-26 07:21:29 51°16.37 2°54.18 5.8   13.2 102220 86
2003-05-26 07:21:35 51°16.37 2°54.16 6.2   13.2 102220 86
2003-05-26 07:21:39 51°16.38 2°54.15 6.3   13.2 102220 86
2003-05-26 07:21:43 51°16.38 2°54.13 6.1   13.2 102220 86
2003-05-26 07:21:49 51°16.39 2°54.11 6.3   13.2 102220 86
2003-05-26 07:21:55 51°16.4 2°54.09 6.6   13.2 102220 86
2003-05-26 07:21:59 51°16.4 2°54.08 6.4   13.2 102220 86
2003-05-26 07:22:03 51°16.41 2°54.07 6.6   13.2 102220 86
2003-05-26 07:22:09 51°16.41 2°54.05 6.5   13.1 102220 86
2003-05-26 07:22:15 51°16.42 2°54.03 6.3   13.1 102220 86
2003-05-26 07:22:19 51°16.43 2°54.01 6.1   13.1 102220 86
2003-05-26 07:22:23 51°16.43 2°54 6.6   13.1 102220 86
2003-05-26 07:22:29 51°16.44 2°53.98 6.2   13.1 102220 86
2003-05-26 07:22:35 51°16.45 2°53.96 6.4   13.1 102220 86
2003-05-26 07:22:39 51°16.45 2°53.94 6.5   13.1 102220 86
2003-05-26 07:22:43 51°16.46 2°53.93 6.8   13.1 102220 86
2003-05-26 07:22:49 51°16.47 2°53.91 6.5   13.1 102220 86
2003-05-26 07:22:55 51°16.47 2°53.89 6.4   13.1 102220 86
2003-05-26 07:22:59 51°16.48 2°53.87 6.6   13.1 102220 86
2003-05-26 07:23:03 51°16.49 2°53.86 6.8   13.1 102220 86
2003-05-26 07:23:09 51°16.49 2°53.84 6.5   13.1 102220 86
2003-05-26 07:23:15 51°16.5 2°53.81 6.5   13.1 102220 86
2003-05-26 07:23:19 51°16.51 2°53.8 6.8   13.1 102220 86
2003-05-26 07:23:23 51°16.51 2°53.79 6.9   13.1 102220 86
2003-05-26 07:23:29 51°16.52 2°53.76 6.8   13.1 102220 86
2003-05-26 07:23:35 51°16.53 2°53.74 6.5   13.1 102220 86
2003-05-26 07:23:39 51°16.53 2°53.73 6.7   13.1 102220 86
2003-05-26 07:23:43 51°16.54 2°53.71 6.4   13.1 102220 86
2003-05-26 07:23:49 51°16.55 2°53.69 6.5   13.1 102220 86
2003-05-26 07:23:55 51°16.56 2°53.67 6.4   13.1 102220 86
2003-05-26 07:23:59 51°16.56 2°53.66 6.3   13.1 102220 86
2003-05-26 07:24:03 51°16.57 2°53.65 6.1   13.1 102220 86
2003-05-26 07:24:09 51°16.58 2°53.63 6.2   13.1 102220 86
2003-05-26 07:24:15 51°16.59 2°53.61 6.3   13.1 102220 86
2003-05-26 07:24:19 51°16.6 2°53.6 6.3   13.1 102220 86
2003-05-26 07:24:23 51°16.61 2°53.59 6.1   13.1 102220 86
2003-05-26 07:24:29 51°16.62 2°53.57 5.8   13.1 102220 86
2003-05-26 07:24:35 51°16.63 2°53.55 5.8   13.1 102220 86
2003-05-26 07:24:39 51°16.64 2°53.54 6.2   13.1 102220 86
2003-05-26 07:24:43 51°16.65 2°53.53 6.4   13.1 102220 86
2003-05-26 07:24:49 51°16.66 2°53.51 6.3   13.1 102220 86
2003-05-26 07:24:55 51°16.67 2°53.5 6.1   13.1 102220 86
2003-05-26 07:24:59 51°16.68 2°53.49 6.1   13.1 102220 86
2003-05-26 07:25:03 51°16.69 2°53.47 6   13.1 102220 86
2003-05-26 07:25:09 51°16.7 2°53.46 6.3   13.1 102220 86
2003-05-26 07:25:15 51°16.71 2°53.44 6   13.1 102220 86
2003-05-26 07:25:19 51°16.72 2°53.43 6.4   13.1 102220 86
2003-05-26 07:25:23 51°16.73 2°53.41 6.1   13.1 102220 86
2003-05-26 07:25:29 51°16.74 2°53.39 6.1   13.1 102220 86
2003-05-26 07:25:35 51°16.75 2°53.38 5.8   13.1 102220 86
2003-05-26 07:25:39 51°16.76 2°53.36 5.9   13 102220 86
2003-05-26 07:25:43 51°16.77 2°53.35 6   13 102220 86
2003-05-26 07:25:49 51°16.78 2°53.33 6.1   13 102220 86
2003-05-26 07:25:55 51°16.79 2°53.32 6.3   13 102220 86
2003-05-26 07:25:59 51°16.8 2°53.3 6.6   13.1 102220 86
2003-05-26 07:26:05 51°16.81 2°53.28 6.8   13.1 102220 86
2003-05-26 07:26:09 51°16.82 2°53.27 7.2   13 102220 86
2003-05-26 07:26:15 51°16.83 2°53.25 7.2   13 102220 86
2003-05-26 07:26:19 51°16.84 2°53.24 7.3   13.1 102220 86
2003-05-26 07:26:23 51°16.85 2°53.22 7.3   13.1 102220 86
2003-05-26 07:26:29 51°16.87 2°53.2 7.5   13.1 102220 86
2003-05-26 07:26:35 51°16.88 2°53.18 7.5   13.1 102220 86
2003-05-26 07:26:39 51°16.89 2°53.16 7.4   13.1 102220 86
2003-05-26 07:26:43 51°16.9 2°53.15 7.5   13.1 102220 86
2003-05-26 07:26:49 51°16.91 2°53.13 7.6   13.1 102220 86
2003-05-26 07:26:55 51°16.93 2°53.11 7.3   13.1 102220 86
2003-05-26 07:26:59 51°16.94 2°53.09 7.5   13 102220 86
2003-05-26 07:27:03 51°16.95 2°53.08 7.6   13 102220 86
2003-05-26 07:27:09 51°16.96 2°53.06 7.8   13 102220 86
2003-05-26 07:27:15 51°16.97 2°53.03 7.8   13 102220 86
2003-05-26 07:27:19 51°16.98 2°53.02 7.7   13 102220 86
2003-05-26 07:27:23 51°16.99 2°53 7.8   13 102220 86
2003-05-26 07:27:29 51°17.01 2°52.98 8.1   13 102220 86
2003-05-26 07:27:35 51°17.02 2°52.96 7.8   13 102220 86
2003-05-26 07:27:39 51°17.03 2°52.94 7.9   13 102220 86
2003-05-26 07:27:43 51°17.04 2°52.93 7.9   13 102220 86
2003-05-26 07:27:49 51°17.06 2°52.9 8   13 102220 86
2003-05-26 07:27:55 51°17.07 2°52.88 7.9   13 102220 86
2003-05-26 07:27:59 51°17.08 2°52.87 8.1   13 102220 86
2003-05-26 07:28:03 51°17.09 2°52.85 7.9   13 102220 86
2003-05-26 07:28:09 51°17.11 2°52.83 7.9   13 102220 86
2003-05-26 07:28:15 51°17.12 2°52.8 7.8   13 102220 86
2003-05-26 07:28:19 51°17.13 2°52.79 7.5   13 102220 86
2003-05-26 07:28:23 51°17.14 2°52.77 8   13 102220 86
2003-05-26 07:28:29 51°17.16 2°52.75 8.2   13 102220 86
2003-05-26 07:28:35 51°17.17 2°52.72 7.9   13 102220 86
2003-05-26 07:28:39 51°17.18 2°52.71 7.8   13 102220 86
2003-05-26 07:28:43 51°17.19 2°52.69 7.6   13 102220 86
2003-05-26 07:28:49 51°17.21 2°52.67 7.7   13 102220 86
2003-05-26 07:28:55 51°17.22 2°52.65 7.9   13 102220 86
2003-05-26 07:28:59 51°17.23 2°52.63 7.4   13 102220 86
2003-05-26 07:29:03 51°17.24 2°52.62 7.7   13 102220 86
2003-05-26 07:29:09 51°17.26 2°52.59 7.7   13 102220 86
2003-05-26 07:29:15 51°17.28 2°52.57 7.9   13 102220 86
2003-05-26 07:29:19 51°17.29 2°52.55 7.9   13 102220 86
2003-05-26 07:29:23 51°17.3 2°52.54 7.8   13 102220 86
2003-05-26 07:29:29 51°17.31 2°52.52 8.1   13 102220 86
2003-05-26 07:29:35 51°17.33 2°52.49 7.9   13 102220 86
2003-05-26 07:29:39 51°17.34 2°52.48 7.8   13 102220 86
2003-05-26 07:29:43 51°17.35 2°52.46 8   13 102220 86
2003-05-26 07:29:49 51°17.36 2°52.44 8   13 102220 86
2003-05-26 07:29:55 51°17.38 2°52.42 8.4   13 102220 86
2003-05-26 07:29:59 51°17.39 2°52.4 8.3   13 102220 86
2003-05-26 07:30:03 51°17.4 2°52.39 8.5   13 102220 86
2003-05-26 07:30:09 51°17.42 2°52.36 8.1   13 102220 86
2003-05-26 07:30:15 51°17.43 2°52.34 8.4   13 102220 86
2003-05-26 07:30:19 51°17.44 2°52.32 8.2   13.1 102220 86
2003-05-26 07:30:23 51°17.45 2°52.31 8.3   13.1 102220 86
2003-05-26 07:30:29 51°17.47 2°52.29 8   13.1 102220 86
2003-05-26 07:30:35 51°17.48 2°52.26 7.8   13.1 102220 86
2003-05-26 07:30:39 51°17.49 2°52.25 8.1   13.1 102230 86
2003-05-26 07:30:43 51°17.5 2°52.23 8.1   13.1 102230 86
2003-05-26 07:30:49 51°17.52 2°52.21 8.2   13.1 102230 86
2003-05-26 07:30:55 51°17.54 2°52.18 8.2   13.1 102230 86
2003-05-26 07:30:59 51°17.55 2°52.17 8.2   13.1 102220 86
2003-05-26 07:31:03 51°17.56 2°52.15 8   13.1 102220 86
2003-05-26 07:31:09 51°17.57 2°52.13 7.9   13.1 102220 86
2003-05-26 07:31:15 51°17.59 2°52.11 7.9   13.1 102220 86
2003-05-26 07:31:19 51°17.6 2°52.09 8   13.1 102220 86
2003-05-26 07:31:23 51°17.61 2°52.08 7.9   13.1 102220 86
2003-05-26 07:31:29 51°17.62 2°52.05 8.1   13.1 102220 86
2003-05-26 07:31:35 51°17.64 2°52.03 7.9   13.1 102220 86
2003-05-26 07:31:39 51°17.65 2°52.02 7.9   13.1 102220 86
2003-05-26 07:31:43 51°17.66 2°52 7.7   13.1 102220 86
2003-05-26 07:31:49 51°17.68 2°51.99 7.9   13.1 102220 86
2003-05-26 07:31:55 51°17.7 2°51.97 7.3   13.1 102220 86
2003-05-26 07:31:59 51°17.71 2°51.96 7.4   13.1 102220 86
2003-05-26 07:32:03 51°17.72 2°51.94 7.3   13.1 102220 86
2003-05-26 07:32:09 51°17.74 2°51.93 7.4   13.1 102220 86
2003-05-26 07:32:15 51°17.76 2°51.91 7.3   13.1 102220 86
2003-05-26 07:32:19 51°17.77 2°51.9 7.3   13.1 102220 85
2003-05-26 07:32:23 51°17.79 2°51.89 7.3   13.1 102220 85
2003-05-26 07:32:29 51°17.8 2°51.87 7.9   13.1 102220 85
2003-05-26 07:32:35 51°17.82 2°51.85 7.4   13.1 102220 85
2003-05-26 07:32:39 51°17.83 2°51.84 7.6   13.1 102220 85
2003-05-26 07:32:43 51°17.85 2°51.83 7.8   13.1 102220 85
2003-05-26 07:32:49 51°17.86 2°51.81 7.6   13.1 102230 85
2003-05-26 07:32:55 51°17.88 2°51.79 7.8   13.1 102230 85
2003-05-26 07:32:59 51°17.89 2°51.78 7.8   13.1 102230 85
2003-05-26 07:33:03 51°17.91 2°51.77 7.7   13.1 102230 85
2003-05-26 07:33:09 51°17.92 2°51.75 7.7   13.1 102220 85
2003-05-26 07:33:15 51°17.94 2°51.73 7.6   13.1 102220 85
2003-05-26 07:33:19 51°17.96 2°51.72 7.5   13.1 102230 85
2003-05-26 07:33:23 51°17.97 2°51.71 7.6   13.1 102230 85
2003-05-26 07:33:29 51°17.99 2°51.69 7.7   13.1 102220 85
2003-05-26 07:33:35 51°18 2°51.67 7.3   13.1 102220 85
2003-05-26 07:33:39 51°18.02 2°51.66 7.6   13.1 102220 85
2003-05-26 07:33:43 51°18.03 2°51.65 7.3   13.1 102220 85
2003-05-26 07:33:49 51°18.05 2°51.63 7.3   13.1 102230 85
2003-05-26 07:33:55 51°18.07 2°51.61 7.8   13.1 102230 85
2003-05-26 07:33:59 51°18.08 2°51.6 7.5   13.1 102230 85
2003-05-26 07:34:03 51°18.09 2°51.59 7.5   13.1 102230 85
2003-05-26 07:34:09 51°18.11 2°51.57 7.7   13.1 102220 85
2003-05-26 07:34:15 51°18.13 2°51.55 7.5   13.1 102220 85
2003-05-26 07:34:19 51°18.14 2°51.54 7.7   13.1 102220 85
2003-05-26 07:34:23 51°18.15 2°51.53 7.6   13.1 102220 85
2003-05-26 07:34:29 51°18.17 2°51.51 7.2   13.1 102220 85
2003-05-26 07:34:35 51°18.19 2°51.49 7.4   13.1 102220 85
2003-05-26 07:34:39 51°18.2 2°51.48 7.6   13.1 102220 85
2003-05-26 07:34:45 51°18.22 2°51.46 7.3   13.1 102220 85
2003-05-26 07:34:49 51°18.23 2°51.45 7.5   13.1 102220 85
2003-05-26 07:34:55 51°18.24 2°51.43 6.9   13.1 102220 85
2003-05-26 07:34:59 51°18.26 2°51.42 6.6   13.1 102230 85
2003-05-26 07:35:03 51°18.27 2°51.41 6.5   13.1 102230 85
2003-05-26 07:35:09 51°18.28 2°51.39 6.2   13.1 102230 85
2003-05-26 07:35:15 51°18.3 2°51.38 5.5   13.1 102230 85
2003-05-26 07:35:19 51°18.3 2°51.37 5.6   13.1 102230 85
2003-05-26 07:35:23 51°18.31 2°51.36 5.4   13.1 102230 85
2003-05-26 07:35:29 51°18.33 2°51.35 5.7   13.1 102230 85
2003-05-26 07:35:35 51°18.34 2°51.34 5.2   13.1 102230 85
2003-05-26 07:35:39 51°18.35 2°51.33 5.1   13.1 102230 85
2003-05-26 07:35:43 51°18.36 2°51.32 4.9   13.1 102230 85
2003-05-26 07:35:49 51°18.37 2°51.31 5.1   13.1 102230 85
2003-05-26 07:35:55 51°18.38 2°51.3 5.1   13.1 102230 85
2003-05-26 07:35:59 51°18.39 2°51.3 4.9   13.1 102230 85
2003-05-26 07:36:03 51°18.39 2°51.29 5   13.1 102230 85
2003-05-26 07:36:09 51°18.4 2°51.28 5   13.1 102230 85
2003-05-26 07:36:15 51°18.41 2°51.27 5.2   13.1 102230 85
2003-05-26 07:36:19 51°18.42 2°51.26 5.3   13.1 102230 85
2003-05-26 07:36:23 51°18.42 2°51.25 5.3   13.1 102230 85
2003-05-26 07:36:29 51°18.43 2°51.24 5.3   13.1 102230 85
2003-05-26 07:36:35 51°18.44 2°51.22 5.3   13.1 102230 85
2003-05-26 07:36:39 51°18.44 2°51.21 5.3   13.1 102230 85
2003-05-26 07:36:43 51°18.44 2°51.2 5.2   13.1 102230 85
2003-05-26 07:36:49 51°18.44 2°51.19 5   13.1 102230 85
2003-05-26 07:36:55 51°18.45 2°51.18 5.2   13.1 102230 85
2003-05-26 07:36:59 51°18.45 2°51.17 5.4   13.1 102230 85
2003-05-26 07:37:03 51°18.45 2°51.16 5.4   13.1 102230 85
2003-05-26 07:37:09 51°18.45 2°51.14 5.1   13.1 102230 85
2003-05-26 07:37:15 51°18.45 2°51.13 4.7   13.1 102230 85
2003-05-26 07:37:19 51°18.45 2°51.12 4.8   13.1 102230 85
2003-05-26 07:37:23 51°18.45 2°51.11 4.7   13.1 102230 85
2003-05-26 07:37:29 51°18.45 2°51.1 4.7   13.1 102230 85
2003-05-26 07:37:35 51°18.45 2°51.08 4.4   13.1 102230 85
2003-05-26 07:37:39 51°18.45 2°51.08 4.5   13.1 102230 85
2003-05-26 07:37:43 51°18.46 2°51.07 4.2   13.1 102230 85
2003-05-26 07:37:49 51°18.46 2°51.06 4.3   13.1 102230 85
2003-05-26 07:37:55 51°18.46 2°51.05 4.1   13.1 102230 85
2003-05-26 07:37:59 51°18.46 2°51.04 4   13.1 102230 85
2003-05-26 07:38:03 51°18.47 2°51.04 3.6   13.1 102230 85
2003-05-26 07:38:09 51°18.47 2°51.03 3.6   13.1 102230 85
2003-05-26 07:38:15 51°18.47 2°51.02 3.1   13.1 102230 85
2003-05-26 07:38:19 51°18.47 2°51.02 3.3   13.1 102230 85
2003-05-26 07:38:23 51°18.48 2°51.02 3   13.1 102230 85
2003-05-26 07:38:29 51°18.48 2°51.01 2.9   13.1 102230 85
2003-05-26 07:38:35 51°18.48 2°51.01 2.9   13.1 102230 85
2003-05-26 07:38:39 51°18.48 2°51.01 3.1   13.1 102230 85
2003-05-26 07:38:43 51°18.48 2°51.01 2.8   13.1 102230 85
2003-05-26 07:38:49 51°18.49 2°51.01 2.6   13.2 102230 85
2003-05-26 07:38:55 51°18.49 2°51.01 2.6   13.2 102230 85
2003-05-26 07:38:59 51°18.49 2°51.01 2.4   13.2 102230 85
2003-05-26 07:39:03 51°18.49 2°51.01 2.4   13.2 102230 85
2003-05-26 07:39:09 51°18.49 2°51.01 2.5   13.2 102230 85
2003-05-26 07:39:15 51°18.49 2°51.01 2.6   13.2 102230 85
2003-05-26 07:39:19 51°18.49 2°51.01 2.4   13.2 102230 85
2003-05-26 07:39:25 51°18.49 2°51.01 2.7   13.2 102230 85
2003-05-26 07:39:29 51°18.5 2°51.01 2.8   13.2 102240 85
2003-05-26 07:39:35 51°18.5 2°51.01 2.8   13.2 102240 85
2003-05-26 07:39:39 51°18.5 2°51.01 2.9   13.2 102240 85
2003-05-26 07:39:45 51°18.5 2°51.01 2.7   13.2 102240 85
2003-05-26 07:39:49 51°18.5 2°51.01 2.8   13.2 102240 85
2003-05-26 07:39:55 51°18.5 2°51.02 2.3   13.2 102240 85
2003-05-26 07:39:59 51°18.5 2°51.02 2.8   13.1 102230 85
2003-05-26 07:40:03 51°18.51 2°51.02 2.7   13.1 102230 85
2003-05-26 07:40:09 51°18.51 2°51.02 2.5   13.1 102230 85
2003-05-26 07:40:15 51°18.51 2°51.02 2.6   13.1 102230 85
2003-05-26 07:40:19 51°18.51 2°51.02 2.5   13.1 102240 85
2003-05-26 07:40:23 51°18.51 2°51.02 2.8   13.1 102240 85
2003-05-26 07:40:29 51°18.51 2°51.02 2.4   13.1 102230 85
2003-05-26 07:40:35 51°18.52 2°51.02 2.3   13.1 102230 85
2003-05-26 07:40:39 51°18.52 2°51.03 2.7   13.1 102230 85
2003-05-26 07:40:43 51°18.52 2°51.03 2.4   13.1 102230 85
2003-05-26 07:40:49 51°18.52 2°51.03 2.6   13.1 102240 85
2003-05-26 07:40:55 51°18.53 2°51.03 2.6   13.1 102240 85
2003-05-26 07:40:59 51°18.53 2°51.03 2.6   13.1 102230 85
2003-05-26 07:41:03 51°18.53 2°51.03 2.5   13.1 102230 85
2003-05-26 07:41:09 51°18.53 2°51.03 2.5   13 102230 85
2003-05-26 07:41:15 51°18.53 2°51.03 2.6   13 102230 85
2003-05-26 07:41:19 51°18.53 2°51.03 2.9   13 102230 85
2003-05-26 07:41:23 51°18.54 2°51.03 2.7   13 102230 85
2003-05-26 07:41:29 51°18.54 2°51.03 2.6   13.1 102240 85
2003-05-26 07:41:35 51°18.54 2°51.03 2.8   13.1 102240 85
2003-05-26 07:41:39 51°18.54 2°51.03 2.8   13.1 102240 85
2003-05-26 07:41:45 51°18.54 2°51.03 2.7   13.1 102240 85
2003-05-26 07:41:49 51°18.54 2°51.03 2.6   13.1 102240 85
2003-05-26 07:41:55 51°18.55 2°51.03 2.7   13.1 102240 85
2003-05-26 07:41:59 51°18.55 2°51.03 2.5   13.1 102240 85
2003-05-26 07:42:03 51°18.55 2°51.03 2.6   13.1 102240 85
2003-05-26 07:42:09 51°18.55 2°51.03 2.7   13.1 102240 85
2003-05-26 07:42:15 51°18.55 2°51.03 2.8   13.1 102240 85
2003-05-26 07:42:19 51°18.55 2°51.03 2.7   13.1 102240 85
2003-05-26 07:42:23 51°18.55 2°51.03 2.6   13.1 102240 85
2003-05-26 07:42:29 51°18.56 2°51.03 2.7   13.1 102240 85
2003-05-26 07:42:35 51°18.56 2°51.03 2.6   13.1 102240 85
2003-05-26 07:42:39 51°18.56 2°51.03 2.6   13.1 102230 85
2003-05-26 07:42:43 51°18.56 2°51.03 2.9   13.1 102230 85
2003-05-26 07:42:49 51°18.56 2°51.03 2.6   13.1 102240 85
2003-05-26 07:42:55 51°18.56 2°51.03 2.5   13.1 102240 85
2003-05-26 07:42:59 51°18.56 2°51.03 2.7   13.1 102240 85
2003-05-26 07:43:03 51°18.56 2°51.03 2.9   13.1 102240 85
2003-05-26 07:43:09 51°18.56 2°51.03 2.8   13.2 102240 85
2003-05-26 07:43:15 51°18.57 2°51.03 2.9   13.2 102240 85
2003-05-26 07:43:19 51°18.57 2°51.03 2.8   13.2 102240 85
2003-05-26 07:43:23 51°18.57 2°51.03 2.8   13.2 102240 85
2003-05-26 07:43:29 51°18.57 2°51.02 1.9   13.2 102240 85
2003-05-26 07:43:35 51°18.57 2°51.02 2.9   13.2 102240 85
2003-05-26 07:43:39 51°18.57 2°51.02 2.8   13.2 102240 85
2003-05-26 07:43:43 51°18.57 2°51.02 2.7   13.2 102240 85
2003-05-26 07:43:49 51°18.57 2°51.02 2.9   13.2 102240 85
2003-05-26 07:43:55 51°18.57 2°51.02 2.8   13.2 102240 85
2003-05-26 07:43:59 51°18.57 2°51.02 2.8   13.2 102240 85
2003-05-26 07:44:03 51°18.57 2°51.02 2.9   13.2 102240 85
2003-05-26 07:44:09 51°18.57 2°51.02 2.8   13.2 102240 85
2003-05-26 07:44:15 51°18.57 2°51.02 2.8   13.2 102240 85
2003-05-26 07:44:19 51°18.57 2°51.02 2.7   13.2 102240 85
2003-05-26 07:44:23 51°18.57 2°51.02 2.7   13.2 102240 85
2003-05-26 07:44:29 51°18.58 2°51.02 2.7   13.2 102240 85
2003-05-26 07:44:35 51°18.58 2°51.02 2.8   13.2 102240 85
2003-05-26 07:44:39 51°18.58 2°51.02 2.7   13.2 102240 85
2003-05-26 07:44:43 51°18.58 2°51.02 2.7   13.2 102240 85
2003-05-26 07:44:49 51°18.58 2°51.02 2.8   13.2 102240 85
2003-05-26 07:44:55 51°18.58 2°51.02 2.5   13.2 102240 85
2003-05-26 07:44:59 51°18.58 2°51.02 2.8   13.2 102240 85
2003-05-26 07:45:03 51°18.58 2°51.02 2.7   13.2 102240 85
2003-05-26 07:45:09 51°18.58 2°51.02 2.6   13.2 102240 85
2003-05-26 07:45:15 51°18.58 2°51.02 2.7   13.2 102240 85
2003-05-26 07:45:19 51°18.58 2°51.02 2.6   13.2 102240 85
2003-05-26 07:45:23 51°18.58 2°51.02 2.5   13.2 102240 85
2003-05-26 07:45:29 51°18.58 2°51.02 2.5   13.3 102240 85
2003-05-26 07:45:35 51°18.58 2°51.02 2.7   13.3 102240 85
2003-05-26 07:45:39 51°18.58 2°51.02 2.7   13.3 102240 85
2003-05-26 07:45:43 51°18.58 2°51.02 2.7   13.3 102240 85
2003-05-26 07:45:49 51°18.58 2°51.02 2.9   13.3 102240 85
2003-05-26 07:45:55 51°18.58 2°51.02 2.8   13.3 102240 85
2003-05-26 07:45:59 51°18.58 2°51.02 2.8   13.3 102240 85
2003-05-26 07:46:03 51°18.58 2°51.02 2.7   13.3 102240 85
2003-05-26 07:46:09 51°18.58 2°51.02 2.7   13.3 102240 85
2003-05-26 07:46:15 51°18.58 2°51.02 2.7   13.3 102240 85
2003-05-26 07:46:19 51°18.58 2°51.02 2.7   13.3 102240 85
2003-05-26 07:46:23 51°18.57 2°51.02 2.7   13.3 102240 85
2003-05-26 07:46:29 51°18.57 2°51.02 2.6   13.3 102240 85
2003-05-26 07:46:35 51°18.57 2°51.02 2.5   13.3 102240 85
2003-05-26 07:46:39 51°18.57 2°51.02 2.6   13.3 102240 84
2003-05-26 07:46:43 51°18.57 2°51.02 2.6   13.3 102240 84
2003-05-26 07:46:49 51°18.57 2°51.02 2.6   13.2 102240 84
2003-05-26 07:46:55 51°18.57 2°51.02 2.6   13.2 102240 84
2003-05-26 07:46:59 51°18.57 2°51.03 2.6   13.2 102240 84
2003-05-26 07:47:03 51°18.57 2°51.03 2.6   13.2 102240 84
2003-05-26 07:47:09 51°18.57 2°51.03 2.8   13.2 102240 84
2003-05-26 07:47:15 51°18.57 2°51.03 2.7   13.2 102240 84
2003-05-26 07:47:19 51°18.57 2°51.03 2.6   13.2 102240 84
2003-05-26 07:47:23 51°18.57 2°51.03 2.8   13.2 102240 84
2003-05-26 07:47:29 51°18.57 2°51.03 2.7   13.1 102240 84
2003-05-26 07:47:35 51°18.57 2°51.03 2.7   13.1 102240 84
2003-05-26 07:47:39 51°18.57 2°51.03 2.6   13.1 102240 84
2003-05-26 07:47:43 51°18.57 2°51.03 2.6   13.1 102240 84
2003-05-26 07:47:49 51°18.57 2°51.04 2.6   13.1 102240 84
2003-05-26 07:47:55 51°18.56 2°51.04 2.7   13.1 102240 84
2003-05-26 07:47:59 51°18.56 2°51.04 2.6   13.1 102240 84
2003-05-26 07:48:03 51°18.56 2°51.04 2.7   13.1 102240 84
2003-05-26 07:48:09 51°18.56 2°51.04 2.7   13.1 102240 84
2003-05-26 07:48:15 51°18.56 2°51.04 2.5   13.1 102240 84
2003-05-26 07:48:19 51°18.56 2°51.04 2.8   13 102240 84
2003-05-26 07:48:23 51°18.56 2°51.04 2.8   13 102240 84
2003-05-26 07:48:29 51°18.56 2°51.04 2.9   13.1 102240 85
2003-05-26 07:48:35 51°18.56 2°51.05 3   13.1 102240 85
2003-05-26 07:48:39 51°18.56 2°51.05 3   13 102240 85
2003-05-26 07:48:43 51°18.55 2°51.05 3.4   13 102240 85
2003-05-26 07:48:49 51°18.55 2°51.05 3.3   13 102240 85
2003-05-26 07:48:55 51°18.55 2°51.05 3.7   13 102240 85
2003-05-26 07:48:59 51°18.55 2°51.05 3.7   13 102240 85
2003-05-26 07:49:03 51°18.54 2°51.04 4   13 102240 85
2003-05-26 07:49:09 51°18.54 2°51.04 4   13 102240 85
2003-05-26 07:49:15 51°18.54 2°51.04 4.2   13 102240 85
2003-05-26 07:49:19 51°18.54 2°51.04 4.1   13 102240 85
2003-05-26 07:49:23 51°18.53 2°51.03 4.4   13 102240 85
2003-05-26 07:49:29 51°18.53 2°51.03 4.3   12.9 102240 85
2003-05-26 07:49:35 51°18.53 2°51.02 4.5   12.9 102240 85
2003-05-26 07:49:39 51°18.52 2°51.02 4.6   12.9 102240 85
2003-05-26 07:49:43 51°18.52 2°51.01 4.8   12.9 102240 85
2003-05-26 07:49:49 51°18.52 2°51 4.5   12.9 102240 85
2003-05-26 07:49:55 51°18.52 2°50.99 4.6   12.9 102240 85
2003-05-26 07:49:59 51°18.52 2°50.99 4.5   12.9 102240 85
2003-05-26 07:50:03 51°18.52 2°50.98 4.6   12.9 102240 85
2003-05-26 07:50:09 51°18.52 2°50.97 4.6   12.9 102240 85
2003-05-26 07:50:15 51°18.52 2°50.96 4.6   12.9 102240 85
2003-05-26 07:50:19 51°18.52 2°50.96 4.4   12.9 102240 85
2003-05-26 07:50:23 51°18.52 2°50.95 4.4   12.9 102240 85
2003-05-26 07:50:29 51°18.52 2°50.94 4.4   12.9 102240 85
2003-05-26 07:50:35 51°18.53 2°50.93 4.4   12.9 102240 85
2003-05-26 07:50:39 51°18.53 2°50.93 4.3   12.9 102240 85
2003-05-26 07:50:43 51°18.53 2°50.92 4.2   12.9 102240 85
2003-05-26 07:50:49 51°18.54 2°50.91 4.5   12.9 102240 86
2003-05-26 07:50:55 51°18.54 2°50.91 4.4   12.9 102240 86
2003-05-26 07:50:59 51°18.55 2°50.9 4.2   12.9 102240 86
2003-05-26 07:51:03 51°18.55 2°50.9 3.7   12.9 102240 86
2003-05-26 07:51:09 51°18.56 2°50.9 3.7   12.9 102230 86
2003-05-26 07:51:15 51°18.57 2°50.89 3.8   12.9 102230 86
2003-05-26 07:51:19 51°18.57 2°50.89 3.6   12.9 102230 86
2003-05-26 07:51:23 51°18.58 2°50.89 3.8   12.9 102230 86
2003-05-26 07:51:29 51°18.59 2°50.89 4.1   12.9 102240 86
2003-05-26 07:51:35 51°18.6 2°50.89 3.9   12.9 102240 86
2003-05-26 07:51:39 51°18.61 2°50.89 4.2   13 102240 86
2003-05-26 07:51:43 51°18.62 2°50.9 4.6   13 102240 86
2003-05-26 07:51:49 51°18.64 2°50.9 4.4   13 102240 86
2003-05-26 07:51:55 51°18.65 2°50.91 4.8   13 102240 86
2003-05-26 07:51:59 51°18.66 2°50.91 4.9   13 102230 86
2003-05-26 07:52:03 51°18.67 2°50.92 5.2   13 102230 86
2003-05-26 07:52:09 51°18.69 2°50.93 5.2   13 102230 86
2003-05-26 07:52:15 51°18.71 2°50.94 5.5   13 102230 86
2003-05-26 07:52:19 51°18.73 2°50.95 5.8   13 102240 86
2003-05-26 07:52:23 51°18.74 2°50.96 6   13 102240 86
2003-05-26 07:52:29 51°18.76 2°50.98 5.9   13 102230 86
2003-05-26 07:52:35 51°18.78 2°51 5.5   13 102230 86
2003-05-26 07:52:39 51°18.79 2°51.01 5.5   13 102230 86
2003-05-26 07:52:43 51°18.8 2°51.03 5.3   13 102230 86
2003-05-26 07:52:49 51°18.82 2°51.05 5.2   13 102240 86
2003-05-26 07:52:55 51°18.84 2°51.08 5.2   13 102240 86
2003-05-26 07:52:59 51°18.85 2°51.1 5   13 102240 86
2003-05-26 07:53:03 51°18.86 2°51.12 5.1   13 102240 86
2003-05-26 07:53:09 51°18.87 2°51.15 5.3   13 102240 86
2003-05-26 07:53:15 51°18.88 2°51.18 5.1   13 102240 86
2003-05-26 07:53:19 51°18.89 2°51.21 5.2   13.1 102240 86
2003-05-26 07:53:23 51°18.9 2°51.23 5   13.1 102240 86
2003-05-26 07:53:29 51°18.91 2°51.26 5   13.1 102240 86
2003-05-26 07:53:35 51°18.92 2°51.3 5   13.1 102240 86
2003-05-26 07:53:39 51°18.93 2°51.32 4.9   13.1 102240 86
2003-05-26 07:53:43 51°18.93 2°51.35 4.8   13.1 102240 86
2003-05-26 07:53:49 51°18.94 2°51.39 4.9   13.1 102240 86
2003-05-26 07:53:55 51°18.95 2°51.42 4.8   13.1 102240 86
2003-05-26 07:53:59 51°18.95 2°51.45 4.9   13.1 102240 86
2003-05-26 07:54:03 51°18.95 2°51.47 5.1   13.1 102240 86
2003-05-26 07:54:09 51°18.96 2°51.51 4.9   13.1 102240 86
2003-05-26 07:54:15 51°18.97 2°51.55 4.9   13.1 102240 86
2003-05-26 07:54:19 51°18.97 2°51.57 5   13.1 102240 86
2003-05-26 07:54:25 51°18.98 2°51.61 4.7   13.1 102240 86
2003-05-26 07:54:29 51°18.98 2°51.64 4.8   13.1 102240 86
2003-05-26 07:54:35 51°18.99 2°51.67 4.9   13.1 102240 86
2003-05-26 07:54:39 51°18.99 2°51.7 4.9   13.1 102240 86
2003-05-26 07:54:43 51°19 2°51.72 4.8   13.1 102240 86
2003-05-26 07:54:49 51°19.01 2°51.76 4.8   13.1 102240 86
2003-05-26 07:54:55 51°19.01 2°51.8 4.8   13.1 102240 86
2003-05-26 07:54:59 51°19.02 2°51.83 4.9   13 102240 86
2003-05-26 07:55:05 51°19.02 2°51.86 5   13 102240 86
2003-05-26 07:55:09 51°19.03 2°51.89 4.8   13 102240 86
2003-05-26 07:55:15 51°19.03 2°51.93 4.9   13 102240 86
2003-05-26 07:55:19 51°19.04 2°51.95 4.6   13 102240 86
2003-05-26 07:55:23 51°19.04 2°51.98 4.9   13 102240 86
2003-05-26 07:55:29 51°19.05 2°52.01 4.8   13.1 102240 86
2003-05-26 07:55:35 51°19.06 2°52.05 5   13.1 102240 86
2003-05-26 07:55:39 51°19.06 2°52.08 4.7   13.1 102240 86
2003-05-26 07:55:43 51°19.07 2°52.1 5   13.1 102240 86
2003-05-26 07:55:49 51°19.07 2°52.14 4.9   13.1 102240 86
2003-05-26 07:55:55 51°19.08 2°52.18 4.9   13.1 102240 86
2003-05-26 07:55:59 51°19.08 2°52.2 5.1   13.1 102240 86
2003-05-26 07:56:03 51°19.09 2°52.23 5.3   13.1 102240 86
2003-05-26 07:56:09 51°19.09 2°52.27 5.3   13.1 102240 86
2003-05-26 07:56:15 51°19.1 2°52.3 5.3   13.1 102240 86
2003-05-26 07:56:19 51°19.11 2°52.33 5.1   13.1 102240 86
2003-05-26 07:56:23 51°19.11 2°52.35 4.9   13.1 102240 86
2003-05-26 07:56:29 51°19.12 2°52.39 4.8   13.1 102240 86
2003-05-26 07:56:35 51°19.12 2°52.43 5   13.1 102240 86
2003-05-26 07:56:39 51°19.13 2°52.45 5   13.1 102240 86
2003-05-26 07:56:45 51°19.13 2°52.49 4.6   13.1 102240 86
2003-05-26 07:56:49 51°19.14 2°52.52 4.8   13.1 102250 86
2003-05-26 07:56:55 51°19.14 2°52.56 5   13.1 102250 86
2003-05-26 07:56:59 51°19.15 2°52.58 5.1   13.1 102240 86
2003-05-26 07:57:03 51°19.15 2°52.61 4.8   13.1 102240 86
2003-05-26 07:57:09 51°19.16 2°52.64 4.7   13.1 102240 86
2003-05-26 07:57:15 51°19.16 2°52.68 4.7   13.1 102240 86
2003-05-26 07:57:19 51°19.17 2°52.71 4.9   13.1 102240 86
2003-05-26 07:57:23 51°19.17 2°52.73 4.8   13.1 102240 86
2003-05-26 07:57:29 51°19.18 2°52.77 4.9   13.1 102240 86
2003-05-26 07:57:35 51°19.19 2°52.81 4.7   13.1 102240 86
2003-05-26 07:57:39 51°19.19 2°52.83 4.9   13.1 102240 86
2003-05-26 07:57:43 51°19.19 2°52.86 5.1   13.1 102240 86
2003-05-26 07:57:49 51°19.2 2°52.89 5.1   13.1 102250 86
2003-05-26 07:57:55 51°19.21 2°52.93 4.7   13.1 102250 86
2003-05-26 07:57:59 51°19.21 2°52.96 5   13.1 102240 85
2003-05-26 07:58:03 51°19.22 2°52.98 5.1   13.1 102240 85
2003-05-26 07:58:09 51°19.22 2°53.02 5.1   13.1 102240 86
2003-05-26 07:58:15 51°19.23 2°53.06 5   13.1 102240 86
2003-05-26 07:58:19 51°19.23 2°53.08 5.2   13.1 102240 86
2003-05-26 07:58:23 51°19.24 2°53.11 4.9   13.1 102240 86
2003-05-26 07:58:29 51°19.25 2°53.15 4.9   13.1 102240 86
2003-05-26 07:58:35 51°19.25 2°53.18 4.8   13.1 102240 86
2003-05-26 07:58:39 51°19.26 2°53.21 4.9   13.1 102240 86
2003-05-26 07:58:43 51°19.26 2°53.23 5   13.1 102240 86
2003-05-26 07:58:49 51°19.27 2°53.27 4.9   13.1 102240 85
2003-05-26 07:58:55 51°19.28 2°53.31 4.9   13.1 102240 85
2003-05-26 07:58:59 51°19.28 2°53.33 5.1   13.1 102240 85
2003-05-26 07:59:03 51°19.29 2°53.36 4.9   13.1 102240 85
2003-05-26 07:59:09 51°19.3 2°53.39 4.8   13.1 102240 85
2003-05-26 07:59:15 51°19.3 2°53.43 5   13.1 102240 85
2003-05-26 07:59:19 51°19.31 2°53.45 4.9   13.1 102240 85
2003-05-26 07:59:23 51°19.31 2°53.48 4.6   13.1 102240 85
2003-05-26 07:59:29 51°19.32 2°53.52 4.8   13.1 102240 85
2003-05-26 07:59:35 51°19.33 2°53.55 4.7   13.1 102240 85
2003-05-26 07:59:39 51°19.33 2°53.58 4.8   13.1 102240 85
2003-05-26 07:59:43 51°19.34 2°53.6 4.7   13.1 102240 85
2003-05-26 07:59:49 51°19.35 2°53.64 4.6   13.1 102250 85
2003-05-26 07:59:55 51°19.35 2°53.68 4.8   13.1 102250 85
2003-05-26 07:59:59 51°19.36 2°53.7 4.9   13.1 102240 85
2003-05-26 08:00:05 51°19.37 2°53.74 4.8   13.1 102240 85
2003-05-26 08:00:09 51°19.37 2°53.77 4.7   13.1 102250 85
2003-05-26 08:00:15 51°19.38 2°53.8 4.9   13.1 102250 85
2003-05-26 08:00:19 51°19.38 2°53.83 4.9   13.1 102240 85
2003-05-26 08:00:23 51°19.39 2°53.85 4.7   13.1 102240 85
2003-05-26 08:00:29 51°19.4 2°53.89 4.8   13.1 102240 85
2003-05-26 08:00:35 51°19.4 2°53.93 4.8   13.1 102240 85
2003-05-26 08:00:39 51°19.41 2°53.95 4.8   13.1 102240 85
2003-05-26 08:00:45 51°19.42 2°53.99 4.9   13.1 102240 85
2003-05-26 08:00:49 51°19.42 2°54.01 4.9   13.1 102250 85
2003-05-26 08:00:55 51°19.43 2°54.05 4.7   13.1 102250 85
2003-05-26 08:00:59 51°19.44 2°54.08 4.8   13.1 102250 85
2003-05-26 08:01:03 51°19.44 2°54.1 4.7   13.1 102250 85
2003-05-26 08:01:09 51°19.45 2°54.14 4.8   13.1 102240 85
2003-05-26 08:01:15 51°19.46 2°54.18 4.8   13.1 102240 85
2003-05-26 08:01:19 51°19.46 2°54.2 4.9   13.1 102250 85
2003-05-26 08:01:23 51°19.46 2°54.23 4.8   13.1 102250 85
2003-05-26 08:01:29 51°19.47 2°54.26 4.8   13.1 102240 85
2003-05-26 08:01:35 51°19.48 2°54.3 4.9   13.1 102240 85
2003-05-26 08:01:39 51°19.49 2°54.33 4.9   13.1 102240 85
2003-05-26 08:01:45 51°19.49 2°54.36 5.4   13.1 102240 85
2003-05-26 08:01:49 51°19.5 2°54.39 5.2   13.1 102250 85
2003-05-26 08:01:55 51°19.51 2°54.43 5.5   13.1 102250 85
2003-05-26 08:01:59 51°19.51 2°54.45 5.3   13.1 102250 85
2003-05-26 08:02:03 51°19.52 2°54.48 5   13.1 102250 85
2003-05-26 08:02:09 51°19.52 2°54.51 5.1   13.1 102240 85
2003-05-26 08:02:15 51°19.53 2°54.55 5.3   13.1 102240 85
2003-05-26 08:02:19 51°19.54 2°54.58 5   13.2 102250 85
2003-05-26 08:02:25 51°19.54 2°54.61 5.1   13.2 102250 85
2003-05-26 08:02:29 51°19.55 2°54.64 5.1   13.2 102240 85
2003-05-26 08:02:35 51°19.56 2°54.68 5.2   13.2 102240 85
2003-05-26 08:02:39 51°19.56 2°54.7 5.1   13.2 102250 85
2003-05-26 08:02:43 51°19.57 2°54.73 4.9   13.2 102250 85
2003-05-26 08:02:49 51°19.57 2°54.76 4.8   13.2 102250 85
2003-05-26 08:02:55 51°19.58 2°54.8 4.9   13.2 102250 85
2003-05-26 08:02:59 51°19.58 2°54.83 4.7   13.2 102250 85
2003-05-26 08:03:05 51°19.59 2°54.87 4.8   13.2 102250 85
2003-05-26 08:03:09 51°19.6 2°54.89 4.8   13.2 102240 85
2003-05-26 08:03:15 51°19.6 2°54.93 4.9   13.2 102240 85
2003-05-26 08:03:19 51°19.61 2°54.95 5.1   13.2 102240 85
2003-05-26 08:03:23 51°19.61 2°54.98 4.9   13.2 102240 85
2003-05-26 08:03:29 51°19.62 2°55.02 5   13.2 102240 85